Location: Marlborough
(51.4223°N, 1.7415°W)
Time: 07:59:13
(UTC+01:00)

Envisat - Pass Details

Date: 28 May 2024
Orbit: 762 x 764 km, 98.3° (Epoch: 13 June)

Event Time Altitude Azimuth Distance (km) Brightness Sun altitude
Rises 02:43:16 0° 32° (NNE) 3,239 8.1 -13.9°
Reaches altitude 10° 02:48:35 10° 79° (E) 2,303 6.0 -13.6°
Maximum altitude 02:48:51 10° 82° (E) 2,300 5.9 -13.5°
Drops below altitude 10° 02:49:08 10° 85° (E) 2,302 5.9 -13.5°
Sets 02:54:23 0° 132° (SE) 3,218 6.1 -13.2°
